Weather History for Ardmore Downtown, OK

Change the Weather History Date:

Monday, October 15, 2012

  Actual Average (KADM) Record (KADM)
Temperature  
Mean Temperature 63 °F -  
Max Temperature 80 °F 73 °F 87 °F (1999)
Min Temperature 46 °F 52 °F 41 °F (2010)
Degree Days  
Heating Degree Days 2    
Growing Degree Days 13 (Base 50)    
Moisture  
Dew Point 48 °F    
Average Humidity 63    
Maximum Humidity 100    
Minimum Humidity 26    
Precipitation  
Precipitation 0.00 in - - ()
Sea Level Pressure  
Sea Level Pressure 30.04 in    
Wind  
Wind Speed 1 mph (WSW)    
Max Wind Speed 8 mph    
Max Gust Speed -    
Visibility 10 miles    
Events      
Averages and records for this station are not official NWS values.
T = Trace of Precipitation, MM = Missing Value Source: NWS Daily Summary

Daily Weather History Graph

Daily Weather History Graph

Search for Another Location

Airport:

Trip Planner

Search our weather history database for the weather conditions in past years. The results will help you decide how hot, cold, wet, or windy it might be!

Date:

Astronomy

Oct. 15, 2012 Rise Set
Actual Time 7:34 AM CDT 6:53 PM CDT
Civil Twilight 7:08 AM CDT 7:18 PM CDT
Nautical Twilight 6:39 AM CDT 7:47 PM CDT
Astronomical Twilight 6:10 AM CDT 8:16 PM CDT
Moon 7:43 AM CDT (10/15) 6:58 PM CDT (10/15)
Length of Visible Light 12h 10m
Length of Day
11h 19m
New Moon, 0% of the Moon is Illuminated
Oct 15
New Moon
Oct 21
First Quarter
Oct 29
Full
Nov 6
Last Quarter
Nov 13
New

Hourly Weather History & Observations

Time (CDT) Temp. Dew Point Humidity Pressure Visibility Wind Dir Wind Speed Gust Speed Precip Events Conditions
12:15 AM 53.6 °F 50.0 °F 88% 30.10 in 10.0 mi Calm Calm - N/A   Clear
12:35 AM 53.6 °F 48.2 °F 82% 30.10 in 10.0 mi Calm Calm - N/A   Clear
12:55 AM 53.6 °F 50.0 °F 88% 30.10 in 10.0 mi Calm Calm - N/A   Clear
1:15 AM 51.8 °F 50.0 °F 94% 30.10 in 10.0 mi Calm Calm - N/A   Clear
1:35 AM 51.8 °F 48.2 °F 88% 30.10 in 10.0 mi Calm Calm - N/A   Clear
1:55 AM 51.8 °F 48.2 °F 88% 30.10 in 10.0 mi Calm Calm - N/A   Clear
2:15 AM 51.8 °F 48.2 °F 88% 30.10 in 10.0 mi Calm Calm - N/A   Clear
2:35 AM 51.8 °F 48.2 °F 88% 30.10 in 10.0 mi Calm Calm - N/A   Clear
2:55 AM 51.8 °F 48.2 °F 88% 30.10 in 10.0 mi Calm Calm - N/A   Clear
3:15 AM 50.0 °F 48.2 °F 94% 30.10 in 10.0 mi Calm Calm - N/A   Clear
3:35 AM 51.8 °F 48.2 °F 88% 30.10 in 10.0 mi Calm Calm - N/A   Clear
3:55 AM 50.0 °F 46.4 °F 87% 30.10 in 10.0 mi Calm Calm - N/A   Clear
4:15 AM 50.0 °F 46.4 °F 87% 30.10 in 10.0 mi Calm Calm - N/A   Clear
4:55 AM 50.0 °F 46.4 °F 87% 30.10 in 10.0 mi Calm Calm - N/A   Clear
5:15 AM 48.2 °F 46.4 °F 93% 30.10 in 10.0 mi Calm Calm - N/A   Clear
5:35 AM 50.0 °F 46.4 °F 87% 30.09 in 10.0 mi Calm Calm - N/A   Clear
5:55 AM 46.4 °F 46.4 °F 100% 30.09 in 10.0 mi Calm Calm - N/A   Clear
6:15 AM 46.4 °F 46.4 °F 100% 30.10 in 10.0 mi Calm Calm - N/A   Clear
6:35 AM 46.4 °F 46.4 °F 100% 30.10 in 10.0 mi Calm Calm - N/A   Clear
7:15 AM 48.2 °F 46.4 °F 93% 30.11 in 10.0 mi Calm Calm - N/A   Clear
7:35 AM 48.2 °F 46.4 °F 93% 30.10 in 10.0 mi Calm Calm - N/A   Clear
7:55 AM 48.2 °F 46.4 °F 93% 30.10 in 10.0 mi Calm Calm - N/A   Clear
8:15 AM 50.0 °F 48.2 °F 94% 30.10 in 10.0 mi Calm Calm - N/A   Clear
8:35 AM 51.8 °F 50.0 °F 94% 30.11 in 10.0 mi Calm Calm - N/A   Clear
8:55 AM 53.6 °F 50.0 °F 88% 30.11 in 10.0 mi Calm Calm - N/A   Clear
9:15 AM 57.2 °F 50.0 °F 77% 30.12 in 10.0 mi Calm Calm - N/A   Clear
9:35 AM 59.0 °F 51.8 °F 77% 30.12 in 10.0 mi Calm Calm - N/A   Clear
9:55 AM 64.4 °F 48.2 °F 56% 30.12 in 10.0 mi West 4.6 mph - N/A   Clear
10:15 AM 66.2 °F 50.0 °F 56% 30.11 in 10.0 mi West 3.5 mph - N/A   Clear
10:35 AM 68.0 °F 50.0 °F 52% 30.11 in 10.0 mi Calm Calm - N/A   Clear
10:55 AM 69.8 °F 50.0 °F 49% 30.10 in 10.0 mi West 4.6 mph - N/A   Clear
11:35 AM 73.4 °F 48.2 °F 41% 30.10 in 10.0 mi West 4.6 mph - N/A   Clear
11:55 AM 73.4 °F 48.2 °F 41% 30.10 in 10.0 mi West 4.6 mph - N/A   Clear
12:15 PM 75.2 °F 50.0 °F 41% 30.09 in 10.0 mi SSW 3.5 mph - N/A   Clear
12:35 PM 77.0 °F 46.4 °F 34% 30.08 in 10.0 mi SW 4.6 mph - N/A   Clear
1:15 PM 78.8 °F 44.6 °F 30% 30.05 in 10.0 mi SSW 6.9 mph - N/A   Clear
1:35 PM 78.8 °F 44.6 °F 30% 30.04 in 10.0 mi West 8.1 mph - N/A   Clear
1:55 PM 78.8 °F 44.6 °F 30% 30.02 in 10.0 mi Calm Calm - N/A   Clear
2:15 PM 80.6 °F 42.8 °F 26% 30.01 in 10.0 mi SW 5.8 mph - N/A   Clear
2:35 PM 80.6 °F 44.6 °F 28% 30.00 in 10.0 mi WSW 3.5 mph - N/A   Clear
2:55 PM 80.6 °F 44.6 °F 28% 29.99 in 10.0 mi SW 8.1 mph - N/A   Clear
3:15 PM 80.6 °F 44.6 °F 28% 29.99 in 10.0 mi WSW 4.6 mph - N/A   Clear
3:35 PM 80.6 °F 44.6 °F 28% 29.98 in 10.0 mi SSW 6.9 mph - N/A   Clear
3:55 PM 80.6 °F 42.8 °F 26% 29.98 in 10.0 mi SSW 8.1 mph - N/A   Clear
4:15 PM 80.6 °F 44.6 °F 28% 29.98 in 10.0 mi SW 4.6 mph - N/A   Clear
4:35 PM 80.6 °F 42.8 °F 26% 29.97 in 10.0 mi WSW 4.6 mph - N/A   Clear
4:55 PM 80.6 °F 42.8 °F 26% 29.96 in 10.0 mi SW 5.8 mph - N/A   Clear
5:15 PM 80.6 °F 42.8 °F 26% 29.96 in 10.0 mi SW 4.6 mph - N/A   Clear
5:35 PM 80.6 °F 44.6 °F 28% 29.96 in 10.0 mi WSW 5.8 mph - N/A   Clear
6:15 PM 77.0 °F 46.4 °F 34% 29.96 in 10.0 mi Calm Calm - N/A   Clear
6:35 PM 75.2 °F 50.0 °F 41% 29.96 in 10.0 mi Calm Calm - N/A   Clear
6:55 PM 73.4 °F 50.0 °F 44% 29.96 in 10.0 mi Calm Calm - N/A   Clear
7:15 PM 71.6 °F 50.0 °F 46% 29.96 in 10.0 mi Calm Calm - N/A   Clear
7:35 PM 69.8 °F 50.0 °F 49% 29.96 in 10.0 mi Calm Calm - N/A   Clear
7:55 PM 68.0 °F 50.0 °F 52% 29.97 in 10.0 mi Calm Calm - N/A   Clear
8:15 PM 68.0 °F 50.0 °F 52% 29.97 in 10.0 mi Calm Calm - N/A   Clear
8:35 PM 64.4 °F 50.0 °F 59% 29.97 in 10.0 mi Calm Calm - N/A   Clear
8:55 PM 64.4 °F 50.0 °F 59% 29.98 in 10.0 mi Calm Calm - N/A   Clear
9:15 PM 64.4 °F 50.0 °F 59% 29.98 in 10.0 mi Calm Calm - N/A   Clear
9:35 PM 64.4 °F 50.0 °F 59% 29.98 in 10.0 mi Calm Calm - N/A   Clear
9:55 PM 62.6 °F 50.0 °F 63% 29.99 in 10.0 mi Calm Calm - N/A   Clear
10:15 PM 62.6 °F 50.0 °F 63% 29.99 in 10.0 mi Calm Calm - N/A   Clear
10:35 PM 60.8 °F 51.8 °F 72% 29.99 in 10.0 mi Calm Calm - N/A   Clear
10:55 PM 60.8 °F 51.8 °F 72% 29.98 in 10.0 mi Calm Calm - N/A   Clear
11:15 PM 60.8 °F 51.8 °F 72% 29.98 in 10.0 mi Calm Calm - N/A   Clear
11:35 PM 60.8 °F 51.8 °F 72% 29.98 in 10.0 mi Calm Calm - N/A   Clear
11:55 PM 60.8 °F 50.0 °F 68% 29.97 in 10.0 mi Calm Calm - N/A   Clear